Location: Unspecified
(0.0000°N, 0.0000°E)
Time: 17:48:12
(UTC+00:00)

NOSS 0 (C) - Visible Passes

Search period start: 23 July 2018 00:00
Search period end: 02 August 2018 00:00
Orbit: 978 x 989 km, 70.0° (Epoch: 07 September)

Date Brightness Start Highest point End Pass type
(mag) Time Alt. Az. Time Alt. Az. Time Alt. Az.
23 Jul 10.5 03:37:18 10° NE 03:39:39 12° ENE 03:42:01 10° E visible
23 Jul 7.6 05:20:32 10° NNW 05:26:41 54° WSW 05:32:52 10° S visible
24 Jul 9.1 04:02:00 10° NNE 04:07:35 33° ENE 04:13:10 10° SE visible
25 Jul 7.5 04:29:07 10° NNW 04:35:28 83° ENE 04:41:50 10° SSE visible
26 Jul 9.9 03:12:21 10° NE 03:16:20 17° ENE 03:20:18 10° ESE visible
26 Jul 7.9 04:57:29 10° NW 05:03:20 40° WSW 05:09:13 10° S visible
27 Jul 8.5 03:38:15 10° N 03:44:14 44° ENE 03:50:14 10° SE visible
27 Jul 8.9 05:27:44 10° WNW 05:31:15 15° WSW 05:34:47 10° SW visible
28 Jul 7.3 04:05:47 10° NNW 04:12:07 75° WSW 04:18:27 10° S visible
29 Jul 9.8 02:48:05 10° NNE 03:00:36 - SE 02:49:47 16° NE visible
29 Jul9.604:45:41SSW04:45:41SSW04:34:18NWvisible
